Location: Madrid
(40.4000°N, 3.6830°W)
Time: 00:36:03
(UTC+02:00)

ISS - Pass Details

Date: 15 July 2019
Orbit: 409 x 418 km, 51.6° (Epoch: 22 July)

Event Time Altitude Azimuth Distance (km) Brightness Sun altitude
Rises 03:54:23 0° 307° (NW) 2,347 0.2 -24.3°
Reaches altitude 10° 03:57:31 10° 339° (NNW) 1,482 -0.4 -24.0°
Maximum altitude 03:58:58 12° 5° (N) 1,351 -0.3 -23.9°
Drops below altitude 10° 04:00:25 10° 31° (NNE) 1,480 0.1 -23.8°
Sets 04:03:33 0° 63° (ENE) 2,339 0.8 -23.5°
